TimeEST,TemperatureF,Dew PointF,Humidity,Sea Level PressureIn,VisibilityMPH,Wind Direction,Wind SpeedMPH,Gust SpeedMPH,PrecipitationIn,Events,Conditions,WindDirDegrees,DateUTC
12:54 AM,16.0,6.1,65,30.25,10.0,Calm,Calm,-,N/A,,Mostly Cloudy,0,2013-02-02 05:54:00
1:54 AM,14.0,3.9,64,30.25,10.0,Variable,3.5,-,N/A,,Clear,0,2013-02-02 06:54:00
2:54 AM,12.0,3.0,67,30.24,10.0,ESE,4.6,-,N/A,,Clear,120,2013-02-02 07:54:00
3:54 AM,14.0,3.0,62,30.22,10.0,SW,6.9,17.3,N/A,,Mostly Cloudy,220,2013-02-02 08:54:00
4:54 AM,15.1,3.0,59,30.22,10.0,South,8.1,-,N/A,,Mostly Cloudy,170,2013-02-02 09:54:00
5:54 AM,14.0,3.0,62,30.21,10.0,South,6.9,-,N/A,,Mostly Cloudy,180,2013-02-02 10:54:00
7:54 AM,14.0,3.0,62,30.19,10.0,South,8.1,-,N/A,,Mostly Cloudy,180,2013-02-02 12:54:00
8:54 AM,16.0,3.0,57,30.17,10.0,SSW,10.4,21.9,N/A,,Partly Cloudy,200,2013-02-02 13:54:00
9:54 AM,17.1,3.9,56,30.15,10.0,SSW,18.4,25.3,N/A,,Overcast,200,2013-02-02 14:54:00
10:54 AM,18.0,5.0,57,30.16,10.0,South,12.7,21.9,N/A,,Overcast,180,2013-02-02 15:54:00
11:54 AM,19.9,6.1,55,30.12,10.0,SSW,11.5,19.6,N/A,,Overcast,200,2013-02-02 16:54:00
12:54 PM,21.0,7.0,55,30.08,10.0,SSW,8.1,16.1,N/A,,Scattered Clouds,200,2013-02-02 17:54:00
1:54 PM,21.0,9.0,60,30.06,10.0,SSW,6.9,-,N/A,,Overcast,200,2013-02-02 18:54:00
2:54 PM,21.9,10.9,63,30.04,10.0,South,6.9,-,N/A,,Overcast,170,2013-02-02 19:54:00
3:54 PM,21.9,12.0,66,30.04,4.0,South,6.9,-,0.00,Snow,Light Snow,170,2013-02-02 20:54:00
4:54 PM,21.0,12.0,68,30.04,9.0,Variable,4.6,-,0.00,,Overcast,0,2013-02-02 21:54:00
5:54 PM,19.9,14.0,78,30.04,10.0,ESE,4.6,-,N/A,,Overcast,120,2013-02-02 22:54:00
6:54 PM,21.0,15.1,78,30.04,10.0,Variable,3.5,-,N/A,,Overcast,0,2013-02-02 23:54:00
7:54 PM,19.9,14.0,78,30.04,10.0,East,4.6,-,N/A,,Overcast,100,2013-02-03 00:54:00
8:54 PM,19.9,12.9,74,30.04,10.0,Calm,Calm,-,N/A,,Overcast,0,2013-02-03 01:54:00
9:54 PM,19.0,15.1,85,30.04,10.0,South,3.5,-,N/A,,Overcast,180,2013-02-03 02:54:00
10:54 PM,16.0,12.0,84,30.02,10.0,Calm,Calm,-,N/A,,Mostly Cloudy,0,2013-02-03 03:54:00
11:54 PM,15.1,12.0,88,30.01,10.0,Calm,Calm,-,N/A,,Clear,0,2013-02-03 04:54:00